Weather History for KOMA - October, 2011

Change the Weather History Date:

Thursday, October 13, 2011

  Actual Average Record
Temperature  
Mean Temperature 61 °F 54 °F  
Max Temperature 73 °F 66 °F 92 °F (1975)
Min Temperature 48 °F 43 °F 23 °F (1979)
Degree Days  
Heating Degree Days 4 11  
Month to date heating degree days 17 120  
Since 1 July heating degree days 133 223  
Cooling Degree Days 0 0  
Month to date cooling degree days 45 12  
Year to date cooling degree days 1378 1109  
Growing Degree Days 12 (Base 50)    
Moisture  
Dew Point 40 °F    
Average Humidity 52    
Maximum Humidity 77    
Minimum Humidity 26    
Precipitation  
Precipitation 0.00 in 0.07 in 1.27 in (2008)
Month to date precipitation 0.27 0.97  
Year to date precipitation 25.56 26.76  
Snow  
Snow 0.00 in 0.00 in - ()
Month to date snowfall 0.0 0.1  
Since 1 July snowfall 0.0 0.1  
Snow Depth 0.00 in    
Sea Level Pressure  
Sea Level Pressure 29.81 in    
Wind  
Wind Speed 12 mph (NW)    
Max Wind Speed 28 mph    
Max Gust Speed 33 mph    
Visibility 10 miles    
Events      
T = Trace of Precipitation, MM = Missing Value Source: NWS Daily Summary

Daily Weather History Graph

Daily Weather History Graph

Search for Another Location

Airport or City:

Trip Planner

Search our weather history database for the weather conditions in past years. The results will help you decide how hot, cold, wet, or windy it might be!

Date:

Astronomy

Oct. 13, 2011 Rise Set
Actual Time 7:32 AM CDT 6:46 PM CDT
Civil Twilight 7:05 AM CDT 7:13 PM CDT
Nautical Twilight 6:33 AM CDT 7:45 PM CDT
Astronomical Twilight 6:01 AM CDT 8:17 PM CDT
Moon 7:20 PM CDT (10/13) 9:07 AM CDT (10/13)
Length of Visible Light 12h 08m
Length of Day
11h 13m
Full, 98% of the Moon is Illuminated
Oct 13
Full
Oct 19
Last Quarter
Oct 26
New
Nov 2
First Quarter
Nov 10
Full

Hourly Weather History & Observations

Time (CDT) Temp. Dew Point Humidity Pressure Visibility Wind Dir Wind Speed Gust Speed Precip Events Conditions
12:52 AM 55.0 °F 46.0 °F 72% 29.78 in 10.0 mi NNW 6.9 mph - N/A   Clear
1:52 AM 55.0 °F 45.0 °F 69% 29.79 in 10.0 mi NW 9.2 mph - N/A   Clear
2:52 AM 53.1 °F 45.0 °F 74% 29.79 in 10.0 mi NW 8.1 mph - N/A   Clear
3:52 AM 53.1 °F 44.1 °F 71% 29.80 in 10.0 mi WNW 8.1 mph - N/A   Clear
4:52 AM 52.0 °F 44.1 °F 74% 29.81 in 10.0 mi WNW 8.1 mph - N/A   Clear
5:52 AM 51.1 °F 43.0 °F 74% 29.82 in 10.0 mi NW 6.9 mph - N/A   Clear
6:52 AM 50.0 °F 43.0 °F 77% 29.83 in 10.0 mi WNW 6.9 mph - N/A   Clear
7:52 AM 50.0 °F 42.1 °F 74% 29.83 in 10.0 mi West 6.9 mph - N/A   Clear
8:52 AM 53.1 °F 43.0 °F 69% 29.85 in 10.0 mi NW 6.9 mph - N/A   Clear
9:52 AM 57.0 °F 44.1 °F 62% 29.85 in 10.0 mi NW 6.9 mph - N/A   Clear
10:52 AM 62.1 °F 45.0 °F 53% 29.85 in 10.0 mi NW 11.5 mph - N/A   Clear
11:52 AM 66.9 °F 44.1 °F 44% 29.83 in 10.0 mi NW 13.8 mph - N/A   Clear
12:52 PM 70.0 °F 39.0 °F 32% 29.82 in 10.0 mi NW 20.7 mph 29.9 mph N/A   Clear
1:52 PM 71.6 °F 37.4 °F 29% 29.80 in 10.0 mi NNW 18.4 mph 26.5 mph N/A   Partly Cloudy
2:52 PM 73.0 °F 37.9 °F 28% 29.78 in 10.0 mi WNW 17.3 mph 24.2 mph N/A   Partly Cloudy
3:52 PM 73.0 °F 37.0 °F 27% 29.76 in 10.0 mi WNW 16.1 mph - N/A   Partly Cloudy
4:52 PM 72.0 °F 35.1 °F 26% 29.75 in 10.0 mi WNW 19.6 mph - N/A   Partly Cloudy
5:52 PM 70.0 °F 34.0 °F 27% 29.76 in 10.0 mi NW 18.4 mph 25.3 mph N/A   Partly Cloudy
6:52 PM 63.0 °F 37.9 °F 40% 29.78 in 10.0 mi NW 9.2 mph - N/A   Clear
7:52 PM 57.9 °F 37.9 °F 47% 29.81 in 10.0 mi NW 9.2 mph - N/A   Clear
8:52 PM 57.9 °F 37.9 °F 47% 29.81 in 10.0 mi NW 10.4 mph - N/A   Clear
9:52 PM 59.0 °F 37.0 °F 44% 29.83 in 10.0 mi NW 13.8 mph - N/A   Clear
10:52 PM 57.9 °F 36.0 °F 44% 29.83 in 10.0 mi WNW 11.5 mph - N/A   Clear
11:52 PM 57.0 °F 36.0 °F 45% 29.83 in 10.0 mi WNW 11.5 mph - N/A   Clear